Regional Weather Roundup
Issued by NWS Grand Forks, ND

Home | Current Version | Previous Version | Graphics & Text | Print | Product List | Glossary On
Versions: 1 2 3 4 5 6 7 8 9 10 11 12 13 14 15 16 17 18 19 20 21 22 23 24 25 26 27 28 29 30 31 32 33 34 35 36 37 38 39 40 41 42 43 44 45 46 47 48 49 50
000
ASUS43 KFGF 220931
RWRFGF
PRAIRIE TO PINES  WEATHER ROUNDUP
NATIONAL WEATHER SERVICE EASTERN NORTH DAKOTA/GRAND FORKS ND
300 AM CST SAT NOV 22 2014

 **SATELLITE DATA USED TO AUGMENT SKY COVER AT AUTOMATED STATIONS**
 *****  WEATHER ACROSS EASTERN NORTH DAKOTA  *****

CITY           SKY/WX    TMP DP  RH WIND       PRES   REMARKS
GRAND FORKS    CLEAR     26  23  88 SW5       29.62R WCI  20
GRAND FRKS AFB CLEAR     32  29  90 W8        29.62R WCI  24
GRAND FRKS NWS   N/A     27 N/A N/A SW6         N/A  WCI  20
DEVILS LAKE    PTCLDY    30  21  69 SW8       29.58S WCI  23
FARGO          PTCLDY    28  23  81 S8        29.67S WCI  20
WAHPETON ARPT  MOSUNNY   21  19  93 SE5       29.70S WCI  15
$$

 ***** WEATHER ACROSS CENTRAL AND WESTERN NORTH DAKOTA  *****

CITY           SKY/WX    TMP DP  RH WIND       PRES   REMARKS
BISMARCK       CLEAR     28  24  85 CALM      29.65F
MINOT          CLEAR     32  26  78 SW8       29.58S WCI  25
JAMESTOWN      CLEAR     28  24  85 SW6       29.64F WCI  22
MINOT AFB      CLEAR     29  28  96 W8        29.57F WCI  21
GARRISON         N/A     30  27  88 W6        29.60F WCI  24
WILLISTON      CLEAR     27  25  92 CALM      29.58F
DICKINSON      CLEAR     32  23  69 S10       29.59F WCI  24
HETTINGER      CLEAR     28  21  75 SW3       29.66F
$$

 *****  OTHER AIRPORT OBSERVATIONS IN OUR AREA  *****

CITY           SKY/WX    TMP DP  RH WIND       PRES   REMARKS
WALHALLA         N/A     37  36  93 NE10      29.60R
GRAFTON AIRPOR FAIR      30  27  86 W3        29.61R
VALLEY CITY AR FAIR      21  21 100 S8        29.65F WCI  12
CANDO          FAIR      25  25 100 SW6       29.59R WCI  18
CAVALIER APRT  CLOUDY    37  32  81 W6        29.59S
GWINNER        SUNNY     28  27  93 SW12      29.69F WCI  18
ROLLA          FAIR      27  27 100 SW7       29.56S WCI  19
 ***** THE ABOVE OBSERVATIONS ARE NON NWS ARE NOT QUALITY
       CONTROLLED AND MAY MIS-REPORT RAIN FOR SNOW...
$$

  *****  WEATHER ACROSS NORTHERN MINNESOTA  *****

CITY           SKY/WX    TMP DP  RH WIND       PRES   REMARKS
FLAG ISLAND    CLOUDY    30  27  86 SW3       29.57R
WARROAD        CLOUDY    32  28  86 SW6       29.59S
ROSEAU         CLOUDY    34  28  80 SW3       29.59S
HALLOCK        CLOUDY    36  32  87 CALM      29.60R
THF RVR FALLS  CLEAR     27  25  93 S8        29.62S WCI  18
BAUDETTE       CLOUDY    31  26  82 SW6       29.58R
WASKISH        CLOUDY    34  28  80 SW8       29.61S
CROOKSTON      CLEAR     25  21  86 S8        29.64S WCI  16
STEPHEN NDAWN    N/A     27  25  93 S3          N/A
GREENBUSH NDAW   N/A     32  30  93 S5          N/A
$$
  *****  WEATHER ACROSS CENTRAL AND WEST MINNESOTA  *****

CITY           SKY/WX    TMP DP  RH WIND       PRES   REMARKS
FOSSTON        CLEAR     23  21  93 S8        29.65S WCI  14
BEMIDJI        CLEAR     27  25  89 SW7       29.63F WCI  20
PARK RAPIDS    CLEAR     22  21  96 SW5       29.68R WCI  16
ELBOW LAKE       N/A     24  22  94 S8        29.71S WCI  15
WADENA         CLEAR     21  19  93 CALM      29.69S FOG
DETROIT LAKES  CLEAR     28  27  93 S6        29.68S WCI  22
MOORHEAD       CLEAR     27  27 100 S9        29.68F WCI  17
FERGUS FALLS   PTCLDY    25  21  86 S8        29.73S WCI  16
MORRIS MN      CLEAR     27  25  93 S9        29.71F WCI  17
STAPLES        CLEAR     21  21 100 S5        29.70F FOG     WCI  15
$$
  *****  WEATHER ELSEWHERE ACROSS MINNESOTA  *****

CITY           SKY/WX    TMP DP  RH WIND       PRES   REMARKS
DULUTH         PTCLDY    28  23  81 SW20G25   29.69F WCI  15
INTRNTL FALLS  CLOUDY    29  24  82 SW7       29.59R WCI  22
ELY            CLEAR     25  23  93 SW10      29.63S WCI  15
CLOQUET        PTCLDY    27  25  93 SW9       29.71F WCI  17
WHEATON        PTCLDY    27  23  86 S7        29.73S WCI  19
BRAINERD       CLEAR     27  25  92 SW8       29.72S WCI  19
HIBBING        PTCLDY    27  22  81 S7        29.66F WCI  19
ALEXANDRIA     CLEAR     30  26  85 SW9       29.72F WCI  22
SAINT CLOUD    PTCLDY    31  26  82 S8        29.77S WCI  23
MINNEAPOLIS    CLOUDY    36  32  85 S9        29.83F FOG
$$

  *****  WEATHER ACROSS SOUTH DAKOTA  *****

CITY           SKY/WX    TMP DP  RH WIND       PRES   REMARKS
SIOUX FALLS    CLEAR     32  29  88 S9        29.81F WCI  24
BROOKINGS      NOT AVBL
WATERTOWN      CLEAR     25  23  92 S10       29.75F WCI  15
HURON          CLEAR     28  25  88 S8        29.76F WCI  20
SISSETON         N/A     35  27  72 W7        29.70F
ABERDEEN       CLEAR     22  19  89 S9        29.73S WCI  12
MITCHELL       CLEAR     26  25  96 SE6       29.78F FOG     WCI  19
PIERRE         CLEAR     29  24  82 SW8       29.74F WCI  21
MOBRIDGE       CLEAR     29  26  89 SE6       29.68F WCI  23
RAPID CITY     CLEAR     28  20  71 SE3       29.69F
$$

  *****  SOME WEATHER IN NEARBY STATES *****

CITY           SKY/WX    TMP DP  RH WIND       PRES   REMARKS
GLASGOW MT     PTCLDY    31  27  85 E13       29.48F WCI  21
GREAT FALLS MT CLOUDY    43  28  55 S12       29.35F
CHEYENNE WY    CLEAR     30  16  56 SW7       29.87F WCI  23
SCOTTSBLUFF NE CLEAR     21  17  84 N3        29.83F
OMAHA NE       CLOUDY    36  35  96 S7        29.95F FOG
DES MOINES IA  CLOUDY    39  36  89 S9        29.96F FOG
DAVENPORT IA   CLOUDY    34  31  88 S9        30.05F FOG
CHICAGO IL     LGT RAIN  33  30  88 S12G20    30.08F FOG     WCI  24
EAU CLAIRE WI  CLOUDY    33  28  81 SW13      29.86F WCI  24
LA CROSSE WI   CLOUDY    35  29  78 SE10      29.94F
$$

  *****  SOME NATIONAL WEATHER *****

CITY           SKY/WX    TMP DP  RH WIND       PRES   REMARKS
LA GUARDIA NY  CLEAR     31  10  41 W7        30.48F WCI  24
RALEIGH NC     CLEAR     25  15  66 CALM      30.55S
ATLANTA GA     CLEAR     40  31  70 E8        30.43R
NEW ORLEANS LA CLEAR     55  50  83 E6        30.22S
OKLAHOMA CITY  DRIZZLE   62  60  93 S10       30.03S FOG
ALBUQUERQUE NM PTCLDY    36  18  48 N7        30.08F
SALT LAKE CITY PTCLDY    35  24  64 SE9       29.94F
LOS ANGELES CA PTCLDY    61  44  53 NE5       30.07S
BOISE ID       LGT RAIN  41  41 100 SE18      29.76F
SEATTLE WA     MOCLDY    48  40  73 SW22G35   29.54R
$$

*** WEATHER ACROSS MANITOBA...SASKATCHEWAN AND ONTARIO ***
                ***ONTARIO***

CITY           SKY/WX    TMP DP  RH WIND       PRES   REMARKS
GERALDTON      MOCLDY    28  25  86 SW16      29.51S WCI  17
THUNDER BAY    CLEAR     27  21  80 SW6       29.62F WCI  20
SIOUX LOOKOUT  FLURRIES  28  23  80 W8G17     29.50R WCI  20
TORONTO        CLOUDY    23  16  74 S10       30.25F WCI  12
BIG TROUT LK   FLURRIES  14  10  85 NW13G18   29.42R WCI   0
PICKLE LAKE    NOT AVBL
DRYDEN         CLOUDY    28  25  86 W13       29.51S WCI  18
KENORA         CLOUDY    28  25  86 W6        29.54R WCI  22
$$
                *** MANITOBA***

CITY           SKY/WX    TMP DP  RH WIND       PRES   REMARKS
BRANDON        LGT SNOW  32  30  93 NE10      29.58R WCI  24
DAUPHIN        NOT AVBL
ISLAND LAKE    LGT SNOW  12   9  85 NW10      29.56R WCI  -1
PILOT MOUND      N/A     36  32  87 SW3         N/A
THE PAS        CLOUDY    21  18  86 NW10      29.63R WCI  10
THOMPSON       PTCLDY    -8 -13  77 NW6       29.65R WCI -21
WINNIPEG       CLOUDY    30  27  86 N6        29.61R WCI  24
LYNN LAKE      CLEAR    -11 -15  84 W7        29.64R WCI -26
CHURCHILL      CRYSTALS  -4  -9  77 NW16      29.64R WCI -25
GILLAM         CLEAR    -11 -17  77 W9        29.60R WCI -29
$$
                ***SASKATCHEWAN***

CITY           SKY/WX    TMP DP  RH WIND       PRES   REMARKS
ESTEVAN        CLEAR     23  21  93 SW6       29.55S WCI  16
KINDERSLEY     CLOUDY    28  27  93 E12       29.35F WCI  18
LLOYDMINSTER   FOG       27  27 100 E16G25    29.35F VSB 1/2 WCI  14
PRINCE ALBERT  CLOUDY    21  18  86 E9        29.56F WCI  11
REGINA         CLEAR     25  25 100 E8        29.49F WCI  16
YORKTON        CLOUDY    30  28  93 VRB2      29.55S
N. BATTLEFORD  CLOUDY    25  23  93 E17G24    29.46F WCI  11
LA RONGE       FLURRIES  14  10  85 N6        29.63R WCI   5
SASKATOON      CLOUDY    27  27 100 E13       29.50F FOG     WCI  16
SWIFT CURRENT  CLOUDY    28  25  86 S10       29.38F WCI  19
$$
NOTE: THESE ARE AUTOMATED STATIONS WITH LIMITED QUALITY CONTROL
      "FAIR" INDICATES FEW OR NO CLOUDS BELOW 12,000 FEET WITH NO
      SIGNIFICANT WEATHER AND/OR OBSTRUCTIONS TO VISIBILITY.
      SKY/WX - SKY CONDITION AND SIGNIFICANT WEATHER.
      TMP - AIR TEMPERATURE.    DP   - DEWPOINT TEMPERATURE.
      RH  - RELATIVE HUMIDITY.  PRES - PRESSURE.
      HX  - HEAT INDEX.         WCI  - WIND CHILL INDEX.
$



USA.gov is the U.S. government's official web portal to all federal, state and local government web resources and services.